Location: Los Ranchitos
(37.9930°N, 122.5425°W)
Time: 08:14:29
(UTC+00:00)

H-2A R/B - Pass Details

Date: 21 September 2020
Orbit: 577 x 655 km, 98.5° (Epoch: 28 October)

Event Time Altitude Azimuth Distance (km) Brightness Sun altitude
Rises 11:06:55 0° 133° (SE) 2,888 5.7 -32.9°
Reaches altitude 10° 11:09:26 10° 118° (ESE) 2,000 5.0 -32.5°
Maximum altitude 11:12:49 23° 67° (ENE) 1,372 4.4 -31.9°
Drops below altitude 10° 11:16:16 10° 16° (NNE) 2,044 5.2 -31.3°
Sets 11:18:52 0° 2° (N) 2,969 5.9 -30.9°
